Location: Gazon
(48.1318°N, 1.2708°W)
Time: 02:07:58
(UTC+00:00)

OBJECT-B - Pass Details

Date: 18 September 2020
Orbit: 421 x 433 km, 97.0° (Epoch: 09 October)

Event Time Altitude Azimuth Distance (km) Brightness Sun altitude
Exits shadow 20:34:37 41° 273° (W) 629 2.0 -23.6°
Drops below altitude 10° 20:37:32 10° 334° (NNW) 1,522 4.3 -24.0°
Sets 20:39:37 0° 342° (NNW) 2,395 5.4 -24.3°
